Regional Weather Roundup
Issued by NWS Portland, ME

Home | Current Version | Previous Version | Text Only | Print | Product List | Glossary On
Versions: 1 2 3 4 5 6 7 8 9 10 11 12 13 14 15 16 17 18 19 20 21 22 23 24 25 26 27 28 29 30 31 32 33 34 35 36 37 38 39 40 41 42 43 44 45 46 47 48 49 50
000
ASUS41 KGYX 220410
RWRGYX
WEATHER ROUNDUP FOR MAINE AND NEW HAMPSHIRE
NATIONAL WEATHER SERVICE GRAY ME
1200 AM EDT WED OCT 22 2014

MEZ002-005-006-010-012-015-018-020-021-024-026-027-029-220500-
MAINE

CITY           SKY/WX    TMP DP  RH WIND       PRES   REMARKS
PORTLAND       HVY RAIN  50  48  93 N13       30.04F FOG
SANFORD        CLOUDY    46  41  81 N14       30.05R
BAR HARBOR     CLOUDY    50  50 100 NE12G20   30.14S
WISCASSET      LGT RAIN  52  50  93 NE7       30.09R
ROCKLAND       CLOUDY    52  48  87 NE16G26   30.09S
FRYEBURG       HVY RAIN  46  44  93 NW8       30.11R FOG
LEWISTONAUBURN CLOUDY    45  43  93 N12       30.09S
AUGUSTA        LGT RAIN  44  43  96 N15       30.12S FOG
WATERVILLE     CLOUDY    45  39  81 N14       30.12S
BANGOR         LGT RAIN  45  44  97 N12       30.18R
GREENVILLE       N/A     40  37  89 NE10      30.18R
MILLINOCKET    LGT RAIN  43  37  79 N3        30.26R
HOULTON        CLOUDY    42  35  76 N5        30.26R
PRESQUE ISLE   CLOUDY    39  30  70 N6        30.29R
FRENCHVILLE    CLOUDY    36  27  69 NE3       30.30R
CARIBOU        CLOUDY    37  32  82 N8        30.28R
$$

NHZ002-005-008-009-011-012-014-220500-
NEW HAMPSHIRE

CITY           SKY/WX    TMP DP  RH WIND       PRES   REMARKS
PORTSMOUTH     CLOUDY    49  47  91 N16       30.01S
ROCHESTER      CLOUDY    47  45  93 N10       30.03S
NASHUA         CLOUDY    51  49  93 N7        30.03S
MANCHESTER     CLOUDY    50  46  86 N12       30.01F FOG
CONCORD        LGT RAIN  48  46  93 N7        30.04S
LACONIA        CLOUDY    48  45  87 NE8       30.05S
PLYMOUTH       CLOUDY    48  48 100 CALM      30.06S
BERLIN         LGT RAIN  44  43  96 N10       30.12S
WHITEFIELD     LGT RAIN  45  42  89 NE6       30.09S
JAFFREY        CLOUDY    48  47  96 VRB6      30.02S
LEBANON        CLOUDY    50  45  83 NE5       30.06S
MT WASHINGTON  SLEET     30  30 100 E33         N/A  VSB 0   WCI  14
$$

VTZ005-007-008-220500-
VERMONT

CITY           SKY/WX    TMP DP  RH WIND       PRES   REMARKS
ST JOHNSBURY     N/A     47  45  93 MISG      30.08S
BURLINGTON     LGT RAIN  48  45  89 NW8       30.10S
$$

MAZ007-012-024-CTZ003-RIZ002-NYZ038-NYZ072-220500-
SOUTHERN NEW ENGLAND AND NY

CITY           SKY/WX    TMP DP  RH WIND       PRES   REMARKS
BOSTON         CLOUDY    53  51  93 N10       29.99
WORCESTER      FOG       50  49  96 NE10      29.98F VSB 3/4
NANTUCKET      CLEAR     56  54  93 E6        29.94R
PROVIDENCE     CLOUDY    56  54  93 N10       29.96S
HARTFORD       CLOUDY    56  49  77 N9        29.97R
ALBANY         LGT RAIN  50  47  89 N7        30.03R FOG
NEW YORK CITY  MOCLDY    58  52  80 NE10      29.90S
$$

ANZ081-ANZ082-ANZ150-NHZ014-MEZ023>029-220500-
COASTAL MARINE OBSERVATIONS

STATION/POSITION TIME  TEMP    WIND        PRES    WAVE
                       AIR SEA DIR/SP/G            HT/PER
                 (UTC) (F)     (DEG/KT/KT) (MB)    (FT/S)
MOUNT DESERT ROC 0400   54                   N/A
MATINICUS ROCK   0400           80/ 28/ 33 1017.2S
PORTLAND WX BUOY 0350   54 55   50/ 16/ 19 1016.1R   5/ 7
WELLS            0300   49 50  360/ 11/ 16 1015.8R
ISLE OF SHOALS   0400   51      10/ 22/ 25 1015.3S
JEFFREYS LEDGE   0321      56                N/A     4/ 6
CASHES LEDGE BUO 0350   57 56  100/ 16/ 19 1015.4R   6/ 6
$$

.............KEY..............
   WCI - WIND CHILL
   TC  - TEMPERATURE IN CELSIUS
   VSB - VISIBILITY IN MILES
   HX  - HEAT INDEX
   FAIR- INDICATES FEW OR NO CLOUDS BELOW 12,000 FT, WITH NO
         SIGNIFICANT WEATHER AND/OR OBSTRUCTIONS TO VISIBILITY.





USA.gov is the U.S. government's official web portal to all federal, state and local government web resources and services.